ARG2742 SABE-SAME

Flight info

Callsign ARG2742
Flight time 1h 49m
Altitude 30000
Route NIN UL405 PAPIR PAPIR2Q
Aircraft B737/M-SDE2E3FGHIRWXY/LB1

Departure

Time 2026-04-22 18:30
Airport Aeroparque Jorge Newbery (SABE)

Arrival

Time 2026-04-22 20:19
Airport Governor Francisco Gabrielli International Airport (SAME)
Time Latitude Longitude Altitude Speed Heading
2026-04-22 18:09 -34.55822 -58.41209 26 ft 0 kts 40°
2026-04-22 18:18 -34.55814 -58.41200 26 ft 0 kts 40°
2026-04-22 18:19 -34.55821 -58.41207 26 ft 2 kts 40°
2026-04-22 18:19 -34.55835 -58.41218 26 ft 3 kts 24°
2026-04-22 18:19 -34.55855 -58.41225 26 ft 3 kts
2026-04-22 18:20 -34.55875 -58.41223 26 ft 3 kts 345°
2026-04-22 18:20 -34.55894 -58.41213 26 ft 3 kts 328°
2026-04-22 18:20 -34.55910 -58.41197 26 ft 3 kts 313°
2026-04-22 18:20 -34.55912 -58.41193 26 ft 0 kts 311°
2026-04-22 18:21 -34.55899 -58.41180 26 ft 0 kts 311°
2026-04-22 18:22 -34.55898 -58.41181 26 ft 1 kts 311°
2026-04-22 18:23 -34.55881 -58.41205 26 ft 2 kts 311°
2026-04-22 18:23 -34.55860 -58.41235 26 ft 7 kts 300°
2026-04-22 18:23 -34.55875 -58.41283 26 ft 5 kts 215°
2026-04-22 18:24 -34.55935 -58.41277 26 ft 8 kts 128°
2026-04-22 18:24 -34.55975 -58.41214 26 ft 13 kts 127°
2026-04-22 18:24 -34.56077 -58.41050 26 ft 6 kts 127°
2026-04-22 18:25 -34.56102 -58.41008 26 ft 6 kts 127°
2026-04-22 18:25 -34.56118 -58.40983 26 ft 1 kts 128°
2026-04-22 18:25 -34.56137 -58.40956 26 ft 10 kts 131°
2026-04-22 18:26 -34.56174 -58.40838 26 ft 13 kts 122°
2026-04-22 18:26 -34.56226 -58.40736 26 ft 12 kts 122°
2026-04-22 18:26 -34.56260 -58.40669 26 ft 6 kts 122°
2026-04-22 18:26 -34.56292 -58.40606 26 ft 15 kts 122°
2026-04-22 18:27 -34.56343 -58.40526 26 ft 9 kts 138°
2026-04-22 18:27 -34.56371 -58.40496 26 ft 2 kts 138°
2026-04-22 18:27 -34.56395 -58.40470 26 ft 7 kts 138°
2026-04-22 18:27 -34.56430 -58.40431 26 ft 10 kts 138°
2026-04-22 18:28 -34.56488 -58.40368 26 ft 6 kts 138°
2026-04-22 18:28 -34.56519 -58.40353 26 ft 8 kts 186°
2026-04-22 18:28 -34.56570 -58.40411 26 ft 12 kts 271°
2026-04-22 18:28 -34.56548 -58.40462 26 ft 0 kts 308°
2026-04-22 18:30 -34.56409 -58.40707 26 ft 75 kts 304°
2026-04-22 18:30 -34.55290 -58.42704 303 ft 189 kts 304°
2026-04-22 18:30 -34.54520 -58.44081 1187 ft 200 kts 303°
2026-04-22 18:31 -34.53741 -58.45481 2143 ft 206 kts 303°
2026-04-22 18:31 -34.52944 -58.46907 3278 ft 198 kts 302°
2026-04-22 18:31 -34.52174 -58.48230 4506 ft 187 kts 304°
2026-04-22 18:31 -34.51576 -58.49587 5557 ft 184 kts 293°
2026-04-22 18:32 -34.51215 -58.51162 6051 ft 209 kts 279°
2026-04-22 18:32 -34.51172 -58.53047 6597 ft 231 kts 267°
2026-04-22 18:32 -34.51222 -58.55023 7345 ft 242 kts 268°
2026-04-22 18:32 -34.51263 -58.57076 8328 ft 245 kts 269°
2026-04-22 18:33 -34.51302 -58.59148 9326 ft 247 kts 270°
2026-04-22 18:33 -34.51344 -58.61254 10240 ft 252 kts 272°
2026-04-22 18:33 -34.51386 -58.63408 11061 ft 261 kts 272°
2026-04-22 18:33 -34.51430 -58.65684 11539 ft 280 kts 272°
2026-04-22 18:34 -34.51477 -58.68140 11996 ft 299 kts 272°
2026-04-22 18:34 -34.51525 -58.70669 12694 ft 307 kts 272°
2026-04-22 18:34 -34.51573 -58.73268 13512 ft 311 kts 272°
2026-04-22 18:34 -34.51622 -58.75910 14321 ft 315 kts 272°
2026-04-22 18:35 -34.51671 -58.78585 15147 ft 318 kts 272°
2026-04-22 18:35 -34.51719 -58.81280 15953 ft 321 kts 272°
2026-04-22 18:35 -34.51767 -58.83998 16720 ft 324 kts 272°
2026-04-22 18:35 -34.51815 -58.86746 17463 ft 327 kts 273°
2026-04-22 18:36 -34.51863 -58.89487 18186 ft 330 kts 273°
2026-04-22 18:36 -34.51911 -58.92285 18895 ft 333 kts 273°
2026-04-22 18:36 -34.51969 -58.95080 19788 ft 330 kts 272°
2026-04-22 18:36 -34.52029 -58.97871 20531 ft 332 kts 272°
2026-04-22 18:37 -34.52087 -59.00673 21233 ft 333 kts 273°
2026-04-22 18:37 -34.52143 -59.03488 21922 ft 334 kts 273°
2026-04-22 18:37 -34.52179 -59.05365 22366 ft 335 kts 274°
2026-04-22 18:37 -34.52250 -59.09128 23245 ft 336 kts 274°
2026-04-22 18:38 -34.52303 -59.11983 23872 ft 338 kts 275°
2026-04-22 18:38 -34.52353 -59.14808 24468 ft 339 kts 275°
2026-04-22 18:38 -34.52403 -59.17677 25058 ft 340 kts 275°
2026-04-22 18:39 -34.52500 -59.23349 26591 ft 331 kts 276°
2026-04-22 18:39 -34.52545 -59.26121 27354 ft 326 kts 277°
2026-04-22 18:39 -34.52590 -59.28858 28079 ft 322 kts 278°
2026-04-22 18:39 -34.52633 -59.31558 28737 ft 319 kts 278°
2026-04-22 18:40 -34.52675 -59.34220 29366 ft 317 kts 279°
2026-04-22 18:40 -34.52716 -59.36884 29873 ft 316 kts 279°
2026-04-22 18:40 -34.52756 -59.39552 30089 ft 317 kts 280°
2026-04-22 18:40 -34.52796 -59.42232 30107 ft 316 kts 279°
2026-04-22 18:41 -34.52873 -59.47509 30111 ft 309 kts 279°
2026-04-22 18:41 -34.52946 -59.52696 30112 ft 309 kts 279°
2026-04-22 18:42 -34.53017 -59.57881 30112 ft 306 kts 279°
2026-04-22 18:42 -34.53086 -59.63034 30112 ft 305 kts 279°
2026-04-22 18:43 -34.53151 -59.68143 30112 ft 304 kts 278°
2026-04-22 18:43 -34.53215 -59.73263 30112 ft 304 kts 278°
2026-04-22 18:44 -34.53276 -59.78390 30112 ft 304 kts 278°
2026-04-22 18:44 -34.53336 -59.83498 30112 ft 304 kts 278°
2026-04-22 18:45 -34.53393 -59.88627 30112 ft 303 kts 278°
2026-04-22 18:45 -34.53448 -59.93736 30112 ft 302 kts 278°
2026-04-22 18:46 -34.53500 -59.98806 30112 ft 302 kts 278°
2026-04-22 18:46 -34.53515 -60.01329 30031 ft 310 kts 256°
2026-04-22 18:46 -34.53541 -60.04007 30026 ft 325 kts 257°
2026-04-22 18:47 -34.53570 -60.06812 30037 ft 339 kts 259°
2026-04-22 18:47 -34.53600 -60.09733 30051 ft 354 kts 261°
2026-04-22 18:47 -34.53629 -60.12745 30062 ft 368 kts 262°
2026-04-22 18:47 -34.53658 -60.15908 30069 ft 382 kts 263°
2026-04-22 18:48 -34.53687 -60.19190 30073 ft 396 kts 263°
2026-04-22 18:48 -34.53716 -60.22596 30074 ft 409 kts 263°
2026-04-22 18:48 -34.53746 -60.26104 30070 ft 422 kts 270°
2026-04-22 18:48 -34.53764 -60.28485 30063 ft 428 kts 270°
2026-04-22 18:49 -34.53827 -60.36960 30040 ft 436 kts 271°
2026-04-22 18:49 -34.53852 -60.40698 30035 ft 447 kts 271°
2026-04-22 18:49 -34.53877 -60.44505 30031 ft 457 kts 271°
2026-04-22 18:50 -34.53918 -60.51044 30030 ft 471 kts 271°
2026-04-22 18:50 -34.53983 -60.59073 30015 ft 478 kts 270°
2026-04-22 18:51 -34.54032 -60.67131 30009 ft 477 kts 271°
2026-04-22 18:51 -34.54062 -60.75134 30005 ft 474 kts 270°
2026-04-22 18:52 -34.54084 -60.83142 30002 ft 473 kts 270°
2026-04-22 18:52 -34.54082 -60.91062 30001 ft 473 kts 272°
2026-04-22 18:53 -34.53310 -60.98964 30001 ft 472 kts 280°
2026-04-22 18:53 -34.52062 -61.06825 30001 ft 472 kts 281°
2026-04-22 18:54 -34.50826 -61.14627 30001 ft 473 kts 281°
2026-04-22 18:54 -34.49627 -61.22466 30004 ft 473 kts 281°
2026-04-22 18:55 -34.48405 -61.30323 30005 ft 473 kts 281°
2026-04-22 18:55 -34.47175 -61.38121 30005 ft 473 kts 281°
2026-04-22 18:56 -34.45927 -61.45995 30011 ft 480 kts 283°
2026-04-22 18:56 -34.44649 -61.54035 30021 ft 491 kts 283°
2026-04-22 18:57 -34.43339 -61.62191 30025 ft 498 kts 283°
2026-04-22 18:57 -34.41989 -61.70538 30033 ft 510 kts 281°
2026-04-22 18:58 -34.40643 -61.79032 30040 ft 519 kts 280°
2026-04-22 18:58 -34.39253 -61.87644 30043 ft 520 kts 277°
2026-04-22 18:59 -34.37867 -61.96117 30055 ft 511 kts 275°
2026-04-22 18:59 -34.36483 -62.04526 30057 ft 506 kts 276°
2026-04-22 19:00 -34.35095 -62.12936 30058 ft 506 kts 273°
2026-04-22 19:00 -34.34424 -62.16989 30063 ft 489 kts 272°
2026-04-22 19:00 -34.33761 -62.20971 30067 ft 478 kts 272°
2026-04-22 19:01 -34.32450 -62.28815 30069 ft 474 kts 272°
2026-04-22 19:01 -34.31144 -62.36580 30078 ft 460 kts 273°
2026-04-22 19:02 -34.30522 -62.40281 30081 ft 435 kts 273°
2026-04-22 19:02 -34.29927 -62.43808 30083 ft 421 kts 273°
2026-04-22 19:02 -34.28763 -62.50683 30083 ft 417 kts 272°
2026-04-22 19:03 -34.27626 -62.57550 30088 ft 418 kts 276°
2026-04-22 19:03 -34.27067 -62.60910 30095 ft 394 kts 281°
2026-04-22 19:03 -34.26533 -62.64098 30098 ft 381 kts 281°
2026-04-22 19:04 -34.25493 -62.70269 30101 ft 370 kts 281°
2026-04-22 19:04 -34.24467 -62.76321 30101 ft 369 kts 282°
2026-04-22 19:05 -34.23438 -62.82372 30105 ft 367 kts 288°
2026-04-22 19:05 -34.22404 -62.88413 30112 ft 369 kts 288°
2026-04-22 19:06 -34.21360 -62.94495 30111 ft 369 kts 288°
2026-04-22 19:07 -34.19813 -63.03597 30111 ft 368 kts 288°
2026-04-22 19:07 -34.18773 -63.09632 30112 ft 369 kts 288°
2026-04-22 19:08 -34.17717 -63.15699 30112 ft 369 kts 289°
2026-04-22 19:08 -34.16653 -63.21773 30112 ft 369 kts 289°
2026-04-22 19:09 -34.15587 -63.27845 30112 ft 369 kts 289°
2026-04-22 19:09 -34.14527 -63.33873 30112 ft 369 kts 289°
2026-04-22 19:10 -34.13402 -63.39916 30112 ft 368 kts 290°
2026-04-22 19:10 -34.12214 -63.45897 30112 ft 368 kts 290°
2026-04-22 19:11 -34.11039 -63.51907 30112 ft 368 kts 289°
2026-04-22 19:11 -34.09864 -63.57911 30112 ft 367 kts 289°
2026-04-22 19:12 -34.08678 -63.63896 30112 ft 366 kts 289°
2026-04-22 19:12 -34.07486 -63.69876 30112 ft 366 kts 289°
2026-04-22 19:13 -34.06295 -63.75826 30112 ft 366 kts 289°
2026-04-22 19:13 -34.05103 -63.81770 30112 ft 364 kts 289°
2026-04-22 19:14 -34.03913 -63.87712 30112 ft 365 kts 289°
2026-04-22 19:14 -34.02720 -63.93657 30112 ft 364 kts 289°
2026-04-22 19:15 -34.01728 -63.98589 30112 ft 364 kts 288°
2026-04-22 19:15 -34.00340 -64.05467 30112 ft 363 kts 288°
2026-04-22 19:16 -33.99143 -64.11378 30112 ft 363 kts 288°
2026-04-22 19:16 -33.97973 -64.17303 30112 ft 363 kts 288°
2026-04-22 19:17 -33.96794 -64.23193 30112 ft 363 kts 288°
2026-04-22 19:17 -33.95596 -64.29102 30112 ft 363 kts 288°
2026-04-22 19:18 -33.94388 -64.35017 30112 ft 363 kts 288°
2026-04-22 19:18 -33.93178 -64.40921 30112 ft 363 kts 288°
2026-04-22 19:19 -33.91973 -64.46791 30112 ft 364 kts 289°
2026-04-22 19:19 -33.90757 -64.52743 30112 ft 366 kts 289°
2026-04-22 19:20 -33.89547 -64.58653 30112 ft 365 kts 289°
2026-04-22 19:20 -33.88327 -64.64556 30112 ft 365 kts 289°
2026-04-22 19:21 -33.87094 -64.70498 30112 ft 365 kts 290°
2026-04-22 19:21 -33.85865 -64.76402 30112 ft 366 kts 290°
2026-04-22 19:22 -33.84622 -64.82367 30112 ft 366 kts 290°
2026-04-22 19:22 -33.83384 -64.88278 30112 ft 366 kts 290°
2026-04-22 19:23 -33.82136 -64.94215 30112 ft 366 kts 290°
2026-04-22 19:23 -33.80883 -65.00164 30112 ft 367 kts 290°
2026-04-22 19:24 -33.79710 -65.05863 30116 ft 367 kts 290°
2026-04-22 19:24 -33.78458 -65.11851 30112 ft 367 kts 290°
2026-04-22 19:25 -33.77198 -65.17809 30112 ft 367 kts 290°
2026-04-22 19:25 -33.75959 -65.23635 30112 ft 367 kts 290°
2026-04-22 19:26 -33.74696 -65.29554 30112 ft 367 kts 290°
2026-04-22 19:26 -33.73424 -65.35509 30112 ft 367 kts 290°
2026-04-22 19:27 -33.72132 -65.41445 30112 ft 366 kts 291°
2026-04-22 19:27 -33.70734 -65.47302 30112 ft 366 kts 292°
2026-04-22 19:28 -33.69332 -65.53180 30112 ft 366 kts 292°
2026-04-22 19:28 -33.67930 -65.59063 30112 ft 366 kts 292°
2026-04-22 19:29 -33.66537 -65.64908 30112 ft 366 kts 291°
2026-04-22 19:29 -33.65135 -65.70785 30112 ft 366 kts 292°
2026-04-22 19:30 -33.63968 -65.75671 30112 ft 366 kts 292°
2026-04-22 19:30 -33.62345 -65.82552 30112 ft 366 kts 291°
2026-04-22 19:31 -33.60957 -65.88425 30112 ft 364 kts 290°
2026-04-22 19:31 -33.59581 -65.94209 30112 ft 362 kts 290°
2026-04-22 19:32 -33.58190 -66.00030 30112 ft 362 kts 290°
2026-04-22 19:32 -33.56819 -66.05826 30112 ft 362 kts 290°
2026-04-22 19:33 -33.55425 -66.11649 30112 ft 364 kts 291°
2026-04-22 19:33 -33.54011 -66.17504 30112 ft 365 kts 291°
2026-04-22 19:34 -33.52604 -66.23302 30113 ft 364 kts 291°
2026-04-22 19:34 -33.51183 -66.29142 30112 ft 364 kts 291°
2026-04-22 19:35 -33.49759 -66.34989 30112 ft 365 kts 292°
2026-04-22 19:35 -33.48528 -66.39835 30112 ft 364 kts 294°
2026-04-22 19:36 -33.46431 -66.46407 30112 ft 362 kts 295°
2026-04-22 19:36 -33.44609 -66.52044 30112 ft 363 kts 295°
2026-04-22 19:37 -33.42818 -66.57651 30112 ft 363 kts 295°
2026-04-22 19:37 -33.41168 -66.63374 30112 ft 365 kts 292°
2026-04-22 19:38 -33.39761 -66.69222 30112 ft 365 kts 291°
2026-04-22 19:38 -33.38348 -66.75069 30112 ft 365 kts 291°
2026-04-22 19:39 -33.37164 -66.79910 30112 ft 365 kts 291°
2026-04-22 19:39 -33.35495 -66.86681 30112 ft 364 kts 291°
2026-04-22 19:40 -33.34308 -66.91559 30112 ft 364 kts 291°
2026-04-22 19:40 -33.32910 -66.97284 30112 ft 364 kts 291°
2026-04-22 19:41 -33.31471 -67.03095 30112 ft 363 kts 291°
2026-04-22 19:41 -33.30028 -67.08875 30112 ft 362 kts 291°
2026-04-22 19:42 -33.29533 -67.10847 30056 ft 367 kts 287°
2026-04-22 19:42 -33.28795 -67.13791 30020 ft 381 kts 287°
2026-04-22 19:42 -33.28018 -67.16888 29990 ft 395 kts 287°
2026-04-22 19:42 -33.27205 -67.20115 29302 ft 413 kts 277°
2026-04-22 19:43 -33.25502 -67.26868 27077 ft 434 kts 289°
2026-04-22 19:43 -33.24551 -67.30313 26131 ft 436 kts 291°
2026-04-22 19:43 -33.23577 -67.33688 25830 ft 419 kts 291°
2026-04-22 19:44 -33.22657 -67.36880 25575 ft 394 kts 290°
2026-04-22 19:44 -33.21798 -67.39892 25321 ft 372 kts 288°
2026-04-22 19:44 -33.20997 -67.42739 25068 ft 353 kts 288°
2026-04-22 19:44 -33.20239 -67.45414 24817 ft 336 kts 288°
2026-04-22 19:45 -33.19506 -67.47995 24564 ft 322 kts 288°
2026-04-22 19:45 -33.18797 -67.50479 24268 ft 311 kts 288°
2026-04-22 19:45 -33.18108 -67.52891 23838 ft 304 kts 288°
2026-04-22 19:45 -33.17430 -67.55259 23411 ft 297 kts 288°
2026-04-22 19:46 -33.16767 -67.57572 22983 ft 291 kts 288°
2026-04-22 19:46 -33.16116 -67.59840 22562 ft 286 kts 288°
2026-04-22 19:46 -33.15484 -67.62042 22168 ft 283 kts 288°
2026-04-22 19:46 -33.14833 -67.64306 21741 ft 292 kts 288°
2026-04-22 19:47 -33.14169 -67.66616 21343 ft 297 kts 288°
2026-04-22 19:47 -33.13494 -67.68962 20937 ft 298 kts 288°
2026-04-22 19:47 -33.12819 -67.71311 20533 ft 300 kts 288°
2026-04-22 19:47 -33.12148 -67.73685 20127 ft 301 kts 287°
2026-04-22 19:48 -33.11679 -67.76156 19530 ft 314 kts 279°
2026-04-22 19:48 -33.11390 -67.78764 19026 ft 326 kts 276°
2026-04-22 19:48 -33.11174 -67.81486 18580 ft 331 kts 275°
2026-04-22 19:48 -33.10992 -67.84242 18137 ft 334 kts 274°
2026-04-22 19:49 -33.10806 -67.87019 17694 ft 338 kts 275°
2026-04-22 19:49 -33.10614 -67.89818 17253 ft 340 kts 275°
2026-04-22 19:49 -33.10419 -67.92605 16811 ft 342 kts 275°
2026-04-22 19:49 -33.10219 -67.95438 16373 ft 344 kts 275°
2026-04-22 19:50 -33.10015 -67.98287 15924 ft 345 kts 275°
2026-04-22 19:50 -33.09809 -68.01142 15489 ft 346 kts 275°
2026-04-22 19:50 -33.09602 -68.03994 15047 ft 342 kts 275°
2026-04-22 19:50 -33.09397 -68.06806 14610 ft 337 kts 275°
2026-04-22 19:51 -33.09192 -68.09584 14188 ft 333 kts 275°
2026-04-22 19:51 -33.08991 -68.12310 13777 ft 329 kts 275°
2026-04-22 19:51 -33.08794 -68.14975 13376 ft 325 kts 275°
2026-04-22 19:51 -33.08605 -68.17643 12978 ft 321 kts 275°
2026-04-22 19:52 -33.08418 -68.20289 12583 ft 317 kts 275°
2026-04-22 19:52 -33.08232 -68.22903 12196 ft 314 kts 275°
2026-04-22 19:52 -33.08055 -68.25488 11833 ft 310 kts 275°
2026-04-22 19:52 -33.07877 -68.28017 11478 ft 307 kts 275°
2026-04-22 19:53 -33.07694 -68.30554 11108 ft 304 kts 275°
2026-04-22 19:53 -33.07510 -68.33058 10740 ft 302 kts 275°
2026-04-22 19:53 -33.07325 -68.35549 10401 ft 299 kts 275°
2026-04-22 19:53 -33.07143 -68.37966 10190 ft 292 kts 275°
2026-04-22 19:54 -33.06963 -68.40340 10004 ft 285 kts 275°
2026-04-22 19:54 -33.06784 -68.42679 9704 ft 282 kts 275°
2026-04-22 19:54 -33.06606 -68.45005 9398 ft 280 kts 275°
2026-04-22 19:54 -33.06428 -68.47314 9087 ft 279 kts 275°
2026-04-22 19:55 -33.06250 -68.49615 8768 ft 278 kts 275°
2026-04-22 19:55 -33.06072 -68.51915 8461 ft 278 kts 275°
2026-04-22 19:55 -33.05903 -68.54238 8183 ft 281 kts 275°
2026-04-22 19:55 -33.05714 -68.56390 8113 ft 270 kts 276°
2026-04-22 19:56 -33.05544 -68.58577 8038 ft 259 kts 275°
2026-04-22 19:56 -33.05389 -68.60672 7968 ft 249 kts 275°
2026-04-22 19:56 -33.05295 -68.62694 7902 ft 239 kts 271°
2026-04-22 19:56 -33.05273 -68.64641 7817 ft 230 kts 270°
2026-04-22 19:57 -33.05260 -68.66518 7731 ft 222 kts 270°
2026-04-22 19:57 -33.05245 -68.68323 7565 ft 220 kts 270°
2026-04-22 19:57 -33.05228 -68.70177 7214 ft 227 kts 270°
2026-04-22 19:57 -33.05209 -68.72082 6843 ft 231 kts 270°
2026-04-22 19:58 -33.05189 -68.73994 6468 ft 231 kts 271°
2026-04-22 19:58 -33.05169 -68.75910 6116 ft 228 kts 271°
2026-04-22 19:58 -33.04982 -68.77770 5716 ft 226 kts 291°
2026-04-22 19:58 -33.03978 -68.79146 5335 ft 223 kts 330°
2026-04-22 19:59 -33.02513 -68.79571 4990 ft 219 kts 356°
2026-04-22 20:00 -32.94829 -68.79453 4308 ft 150 kts
2026-04-22 20:00 -32.93802 -68.79438 4139 ft 146 kts
2026-04-22 20:01 -32.92792 -68.79424 3936 ft 144 kts
2026-04-22 20:01 -32.91789 -68.79409 3743 ft 144 kts
2026-04-22 20:01 -32.90786 -68.79395 3552 ft 144 kts
2026-04-22 20:01 -32.89782 -68.79381 3361 ft 144 kts
2026-04-22 20:02 -32.88792 -68.79367 3170 ft 144 kts
2026-04-22 20:02 -32.87789 -68.79353 2979 ft 143 kts
2026-04-22 20:02 -32.86792 -68.79338 2785 ft 143 kts
2026-04-22 20:02 -32.85792 -68.79323 2561 ft 142 kts
2026-04-22 20:03 -32.84813 -68.79312 2416 ft 140 kts
2026-04-22 20:03 -32.83871 -68.79300 2321 ft 124 kts
2026-04-22 20:03 -32.82974 -68.79284 2546 ft 143 kts
2026-04-22 20:03 -32.81943 -68.79273 3278 ft 157 kts
2026-04-22 20:04 -32.80810 -68.79246 3814 ft 176 kts
2026-04-22 20:04 -32.79466 -68.79127 4411 ft 202 kts
2026-04-22 20:04 -32.77983 -68.78943 4848 ft 235 kts
2026-04-22 20:04 -32.76354 -68.78424 5028 ft 254 kts 26°
2026-04-22 20:05 -32.74957 -68.77066 5400 ft 266 kts 51°
2026-04-22 20:05 -32.74098 -68.75070 5576 ft 284 kts 72°
2026-04-22 20:05 -32.73623 -68.72635 5791 ft 323 kts 79°
2026-04-22 20:05 -32.73253 -68.69892 5803 ft 341 kts 82°
2026-04-22 20:06 -32.72946 -68.67193 5796 ft 327 kts 81°
2026-04-22 20:06 -32.72362 -68.64654 5788 ft 310 kts 68°
2026-04-22 20:06 -32.71378 -68.62423 5792 ft 294 kts 58°
2026-04-22 20:06 -32.70260 -68.60465 5790 ft 279 kts 54°
2026-04-22 20:07 -32.69138 -68.58687 5785 ft 265 kts 52°
2026-04-22 20:07 -32.68053 -68.56992 5779 ft 251 kts 53°
2026-04-22 20:07 -32.67026 -68.55380 5775 ft 239 kts 53°
2026-04-22 20:07 -32.66044 -68.53833 5777 ft 232 kts 53°
2026-04-22 20:08 -32.65080 -68.52311 5783 ft 228 kts 53°
2026-04-22 20:08 -32.64420 -68.50543 5775 ft 255 kts 83°
2026-04-22 20:08 -32.64738 -68.48334 5841 ft 293 kts 114°
2026-04-22 20:08 -32.65995 -68.46520 5828 ft 288 kts 144°
2026-04-22 20:09 -32.67807 -68.45733 5805 ft 273 kts 176°
2026-04-22 20:09 -32.69612 -68.46145 5762 ft 260 kts 203°
2026-04-22 20:09 -32.71129 -68.47228 5687 ft 249 kts 218°
2026-04-22 20:09 -32.72454 -68.48483 5609 ft 238 kts 218°
2026-04-22 20:10 -32.73707 -68.49668 5527 ft 228 kts 218°
2026-04-22 20:10 -32.74931 -68.50829 5446 ft 221 kts 218°
2026-04-22 20:10 -32.76125 -68.51963 5369 ft 218 kts 218°
2026-04-22 20:10 -32.77301 -68.53081 5292 ft 215 kts 219°
2026-04-22 20:11 -32.78475 -68.54196 5217 ft 216 kts 219°
2026-04-22 20:11 -32.79647 -68.55310 5142 ft 215 kts 218°
2026-04-22 20:11 -32.80814 -68.56410 5067 ft 215 kts 218°
2026-04-22 20:11 -32.81988 -68.57520 4991 ft 215 kts 218°
2026-04-22 20:12 -32.83159 -68.58630 4916 ft 215 kts 218°
2026-04-22 20:12 -32.84314 -68.59725 4842 ft 215 kts 218°
2026-04-22 20:12 -32.85104 -68.60476 4803 ft 214 kts 218°
2026-04-22 20:12 -32.86647 -68.61943 4798 ft 214 kts 219°
2026-04-22 20:13 -32.87815 -68.63055 4799 ft 214 kts 219°
2026-04-22 20:13 -32.88949 -68.64137 4814 ft 201 kts 219°
2026-04-22 20:13 -32.89991 -68.65131 4802 ft 183 kts 219°
2026-04-22 20:13 -32.90934 -68.66061 4749 ft 170 kts 223°
2026-04-22 20:14 -32.91665 -68.67121 4739 ft 163 kts 237°
2026-04-22 20:14 -32.92267 -68.68245 4753 ft 159 kts 237°
2026-04-22 20:14 -32.92853 -68.69338 4790 ft 158 kts 237°
2026-04-22 20:14 -32.93447 -68.70450 4804 ft 160 kts 237°
2026-04-22 20:15 -32.94036 -68.71553 4790 ft 155 kts 237°
2026-04-22 20:15 -32.94608 -68.72625 4771 ft 151 kts 237°
2026-04-22 20:15 -32.95160 -68.73673 4761 ft 148 kts 240°
2026-04-22 20:15 -32.95427 -68.74828 4715 ft 148 kts 270°
2026-04-22 20:16 -32.95161 -68.75994 4784 ft 147 kts 295°
2026-04-22 20:16 -32.94640 -68.77078 4775 ft 151 kts 306°
2026-04-22 20:16 -32.93926 -68.77992 4707 ft 152 kts 318°
2026-04-22 20:16 -32.93055 -68.78689 4550 ft 150 kts 335°
2026-04-22 20:17 -32.92072 -68.79079 4342 ft 153 kts 345°
2026-04-22 20:17 -32.91021 -68.79310 4028 ft 153 kts 354°
2026-04-22 20:17 -32.89970 -68.79353 3747 ft 150 kts 359°
2026-04-22 20:17 -32.88938 -68.79345 3432 ft 147 kts
2026-04-22 20:18 -32.87922 -68.79324 3117 ft 145 kts 359°
2026-04-22 20:18 -32.86902 -68.79338 2811 ft 148 kts 360°
2026-04-22 20:18 -32.85868 -68.79325 2585 ft 149 kts
2026-04-22 20:18 -32.84876 -68.79314 2418 ft 140 kts
2026-04-22 20:19 -32.83949 -68.79297 2320 ft 124 kts
2026-04-22 20:19 -32.83229 -68.79284 2319 ft 75 kts
2026-04-22 20:19 -32.82787 -68.79276 2319 ft 53 kts
2026-04-22 20:19 -32.82584 -68.79273 2319 ft 14 kts 355°
2026-04-22 20:20 -32.82547 -68.79323 2319 ft 11 kts 274°
2026-04-22 20:20 -32.85874 -68.79326 2586 ft 149 kts
2026-04-22 20:20 -32.84868 -68.79313 2416 ft 140 kts
2026-04-22 20:20 -32.83942 -68.79297 2319 ft 124 kts
2026-04-22 20:21 -32.82548 -68.79371 2319 ft 11 kts 248°
2026-04-22 20:21 -32.82596 -68.79439 2319 ft 9 kts 229°
2026-04-22 20:21 -32.82625 -68.79474 2319 ft 4 kts 223°
2026-04-22 20:21 -32.82662 -68.79531 2319 ft 13 kts 249°
2026-04-22 20:22 -32.82693 -68.79640 2319 ft 13 kts 251°
2026-04-22 20:22 -32.82732 -68.79697 2319 ft 6 kts 191°
2026-04-22 20:22 -32.82757 -68.79708 2319 ft 4 kts 225°
2026-04-22 20:22 -32.82767 -68.79741 2319 ft 4 kts 270°
2026-04-22 20:23 -32.82767 -68.79749 2319 ft 0 kts 271°
2026-04-22 20:23 -32.82767 -68.79761 2319 ft 1 kts 271°
2026-04-22 20:23 -32.82767 -68.79772 2319 ft 0 kts 271°